Location: Unspecified
(0.0000°N, 0.0000°E)
Time: 05:13:34
(UTC+02:00)

GPS 2-15 Rocket1 - Visible Passes

Search period start: 30 September 2016 00:00
Search period end: 10 October 2016 00:00
Orbit: 625 x 677 km, 19.8° (Epoch: 29 September)

Date Brightness Start Highest point End Pass type
(mag) Time Alt. Az. Time Alt. Az. Time Alt. Az.
30 Sep 4.5 20:55:14 10° SW 20:59:15 25° SSE 21:00:43 21° SE visible
01 Oct 5.5 07:25:50 10° N 07:27:45 12° NNE 07:29:40 10° NE visible
01 Oct 3.7 21:21:09 10° SW 21:25:40 44° SSE 21:25:40 44° SSE visible
02 Oct 4.3 21:47:24 10° WSW 21:50:39 42° WSW 21:50:39 42° WSW visible
03 Oct 5.5 06:34:22 10° NNW 06:36:31 13° NNE 06:38:41 10° NE visible
03 Oct 3.6 20:29:42 10° SW 20:34:29 49° SSE 20:37:58 17° E visible
03 Oct 5.6 22:14:03 10° W 22:15:38 20° W 22:15:38 20° W visible
04 Oct 5.0 06:59:38 10° NNW 07:03:12 21° NNE 07:06:47 10° ENE visible
04 Oct 3.1 20:56:01 10° WSW 21:00:58 87° NNW 21:02:58 36° ENE visible
05 Oct 5.6 05:46:09 13° NNE 05:46:09 13° NNE 05:47:42 10° NE visible
05 Oct 3.8 21:22:44 10° W 21:27:27 45° NNW 21:27:57 43° N visible
06 Oct 4.7 06:11:08 22° N 06:11:57 23° NNE 06:15:39 10° ENE visible
06 Oct 3.3 20:04:39 10° WSW 20:09:38 79° NNW 20:14:32 10° ENE visible
06 Oct 5.1 21:49:56 10° WNW 21:52:55 23° NW 21:52:55 23° NW visible
07 Oct 3.9 06:36:07 23° NW 06:38:30 42° NNE 06:42:54 10° E visible
07 Oct 4.1 20:31:27 10° W 20:36:07 41° NNW 20:40:13 13° NE visible
07 Oct 6.1 22:17:44 10° NW 22:17:52 10° NW 22:17:52 10° NW visible
08 Oct 5.8 05:23:26 15° ENE 05:23:26 15° ENE 05:24:32 10° ENE visible
08 Oct 3.1 07:01:06 15° WNW 07:04:58 83° NNE 07:09:39 10° ESE visible
08 Oct 4.9 20:58:42 10° WNW 21:02:40 24° NNW 21:05:08 16° NNE visible
09 Oct 4.3 05:48:25 37° ENE 05:48:25 37° ENE 05:51:42 10° E visible
09 Oct 5.4 21:26:37 10° NW 21:29:20 15° NNW 21:30:02 14° N visible
